Location: Allos
(44.2333°N, 6.6333°E)
Time: 23:05:49
(UTC+00:00)

RESURS O1 DEB - Visible Passes

Search period start: 24 June 2021 00:00
Search period end: 04 July 2021 00:00
Orbit: 620 x 626 km, 97.9° (Epoch: 24 June)

Date Brightness Start Highest point End Pass type
(mag) Time Alt. Az. Time Alt. Az. Time Alt. Az.
24 Jun ? 20:38:38 10° SSW 20:42:19 27° W 20:46:02 10° NW visible
25 Jun ? 20:57:47 10° SW 21:00:44 18° W 21:03:43 10° NW visible
26 Jun ? 21:17:44 10° WSW 21:19:11 11° W 21:20:39 10° WNW visible
27 Jun ? 19:56:27 10° S 20:00:47 75° WSW 20:05:08 10° NNW visible
28 Jun ? 20:14:53 10° S 20:19:03 47° W 20:23:16 10° NNW visible
29 Jun ? 20:33:33 10° SSW 20:37:22 30° W 20:41:13 10° NNW visible
30 Jun ? 20:52:32 10° SW 20:55:44 20° W 20:58:57 10° NW visible
01 Jul ? 21:12:07 10° WSW 21:14:09 13° W 21:16:10 10° WNW visible
02 Jul ? 19:51:25 10° SSE 19:55:45 85° W 20:00:07 10° NNW visible
03 Jul ? 20:09:44 10° S 20:13:58 54° W 20:18:14 10° NNW visible
